Regional Weather Roundup
Issued by NWS Goodland, KS

Home | Current Version | Previous Version | Text Only | Print | Product List | Glossary Off
Versions: 1 2 3 4 5 6 7 8 9 10 11 12 13 14 15 16 17 18 19 20 21 22 23 24 25 26 27 28 29 30 31 32 33 34 35 36 37 38 39 40 41 42 43 44 45 46 47 48 49 50

000
ASUS43 KGLD 252259
RWRGLD

GOODLAND FORECAST AREA HOURLY WEATHER ROUNDUP
NATIONAL WEATHER SERVICE GOODLAND KS
400 PM MST SAT FEB 25 2017

...OFFICIAL OBSERVATIONS...

CITY           SKY/WX    TMP DP  RH WIND       PRES   REMARKS
GOODLAND KS    SUNNY     38   3  23 N10       29.88F
HILL CITY KS   CLOUDY    47  14  26 NW6       29.91F
IMPERIAL NEB   SUNNY     35  13  40 NW17      29.88F
MCCOOK NEB     SUNNY     41  13  31 NW14      29.91F
AKRON CO       SUNNY     33  18  53 E3        29.82F
BURLINGTON CO  MOSUNNY   40   6  24 E8        29.85F
LIMON CO       CLOUDY    36  -4  18 S13G18    29.77F
$$

...UNOFFICIAL OBSERVATIONS...

CITY           SKY/WX    TMP DP  RH WIND       PRES   REMARKS
LENORA KS        N/A     44  32  63 NW10        N/A
SHARON SPRINGS   N/A     43   9  24 CALM        N/A
TRENTON NEB      N/A     37  32  82 NW10        N/A
KIT CARSON CO    N/A     43   4  19 MISG        N/A
YUMA CO        FAIR      30  18  59 NE6       29.84F
$$




USA.gov is the U.S. government's official web portal to all federal, state and local government web resources and services.